Time,TemperatureF,DewpointF,PressureIn,WindDirection,WindDirectionDegrees,WindSpeedMPH,WindSpeedGustMPH,Humidity,HourlyPrecipIn,Conditions,Clouds,dailyrainin,SoftwareType,DateUTC
2013-01-31 00:15:00,30.0,28.0,30.15,SW,226,0.0,0.0,92,0.00,,,0.00,weatherlink.com 1.10,2013-01-31 06:15:00,
2013-01-31 00:29:00,29.8,28.0,30.16,SW,219,0.0,1.0,93,0.00,,,0.00,weatherlink.com 1.10,2013-01-31 06:29:00,
2013-01-31 00:45:00,29.5,28.0,30.16,SW,219,0.0,1.0,93,0.00,,,0.00,weatherlink.com 1.10,2013-01-31 06:45:00,
2013-01-31 01:00:00,29.5,28.0,30.16,SW,218,0.0,1.0,93,0.00,,,0.00,weatherlink.com 1.10,2013-01-31 07:00:00,
2013-01-31 01:16:00,29.4,28.0,30.17,SW,218,0.0,1.0,94,0.00,,,0.00,weatherlink.com 1.10,2013-01-31 07:16:00,
2013-01-31 01:30:00,29.3,28.0,30.17,SW,218,0.0,1.0,94,0.00,,,0.00,weatherlink.com 1.10,2013-01-31 07:30:00,
2013-01-31 01:45:00,29.4,28.0,30.17,SW,218,0.0,1.0,94,0.00,,,0.00,weatherlink.com 1.10,2013-01-31 07:45:00,
2013-01-31 02:00:00,29.3,28.0,30.16,SW,218,0.0,1.0,94,0.00,,,0.00,weatherlink.com 1.10,2013-01-31 08:00:00,
2013-01-31 02:15:00,29.3,28.0,30.17,SW,218,0.0,1.0,94,0.00,,,0.00,weatherlink.com 1.10,2013-01-31 08:15:00,
2013-01-31 02:30:00,29.4,28.0,30.17,SW,219,0.0,0.0,94,0.00,,,0.00,weatherlink.com 1.10,2013-01-31 08:30:00,
2013-01-31 02:45:00,29.1,28.0,30.17,SW,218,0.0,0.0,94,0.00,,,0.00,weatherlink.com 1.10,2013-01-31 08:45:00,
2013-01-31 03:00:00,28.8,27.0,30.18,SW,218,0.0,1.0,94,0.00,,,0.00,weatherlink.com 1.10,2013-01-31 09:00:00,
2013-01-31 03:15:00,28.9,27.0,30.18,SW,218,0.0,0.0,94,0.00,,,0.00,weatherlink.com 1.10,2013-01-31 09:15:00,
2013-01-31 03:30:00,29.2,28.0,30.18,SW,218,0.0,0.0,94,0.00,,,0.00,weatherlink.com 1.10,2013-01-31 09:30:00,
2013-01-31 03:45:00,29.0,28.0,30.18,SW,218,0.0,0.0,94,0.00,,,0.00,weatherlink.com 1.10,2013-01-31 09:45:00,
2013-01-31 04:00:00,29.2,28.0,30.18,SW,218,0.0,0.0,95,0.00,,,0.00,weatherlink.com 1.10,2013-01-31 10:00:00,
2013-01-31 04:15:00,29.4,28.0,30.18,SW,218,0.0,0.0,94,0.00,,,0.00,weatherlink.com 1.10,2013-01-31 10:15:00,
2013-01-31 04:30:00,29.6,28.0,30.18,SW,218,0.0,0.0,94,0.00,,,0.00,weatherlink.com 1.10,2013-01-31 10:30:00,
2013-01-31 04:45:00,30.0,29.0,30.17,SW,219,0.0,0.0,95,0.00,,,0.00,weatherlink.com 1.10,2013-01-31 10:45:00,
2013-01-31 05:00:00,29.8,28.0,30.17,SW,218,0.0,0.0,92,0.00,,,0.00,weatherlink.com 1.10,2013-01-31 11:00:00,
2013-01-31 05:15:00,30.5,29.0,30.17,WSW,249,0.0,2.0,95,0.00,,,0.00,weatherlink.com 1.10,2013-01-31 11:15:00,
2013-01-31 05:30:00,34.1,31.0,30.18,SW,232,1.0,3.0,87,0.00,,,0.00,weatherlink.com 1.10,2013-01-31 11:30:00,
2013-01-31 05:46:00,33.7,29.0,30.18,South,174,0.0,2.0,83,0.00,,,0.00,weatherlink.com 1.10,2013-01-31 11:46:00,
2013-01-31 06:00:00,33.6,29.0,30.17,SW,229,0.0,2.0,84,0.00,,,0.00,weatherlink.com 1.10,2013-01-31 12:00:00,
2013-01-31 06:15:00,33.2,29.0,30.17,West,260,0.0,1.0,83,0.00,,,0.00,weatherlink.com 1.10,2013-01-31 12:15:00,
2013-01-31 06:30:00,33.4,29.0,30.17,West,260,0.0,0.0,83,0.00,,,0.00,weatherlink.com 1.10,2013-01-31 12:30:00,
2013-01-31 06:45:00,31.4,28.0,30.18,West,260,0.0,0.0,86,0.00,,,0.00,weatherlink.com 1.10,2013-01-31 12:45:00,
2013-01-31 07:01:00,31.0,28.0,30.18,West,259,0.0,0.0,89,0.00,,,0.00,weatherlink.com 1.10,2013-01-31 13:01:00,
2013-01-31 07:16:00,30.6,28.0,30.19,West,260,0.0,0.0,88,0.00,,,0.00,weatherlink.com 1.10,2013-01-31 13:16:00,
2013-01-31 07:30:00,30.7,28.0,30.20,West,260,0.0,0.0,89,0.00,,,0.00,weatherlink.com 1.10,2013-01-31 13:30:00,
2013-01-31 07:46:00,31.6,29.0,30.21,SSE,166,0.0,1.0,88,0.00,,,0.00,weatherlink.com 1.10,2013-01-31 13:46:00,
2013-01-31 08:01:00,35.2,30.0,30.21,WSW,250,1.0,4.0,80,0.00,,,0.00,weatherlink.com 1.10,2013-01-31 14:01:00,
2013-01-31 08:16:00,39.5,30.0,30.22,SSW,194,1.0,7.0,69,0.00,,,0.00,weatherlink.com 1.10,2013-01-31 14:16:00,
2013-01-31 08:31:00,42.4,30.0,30.23,SW,215,6.0,8.0,63,0.00,,,0.00,weatherlink.com 1.10,2013-01-31 14:31:00,
2013-01-31 08:47:00,44.4,30.0,30.23,WSW,240,6.0,8.0,58,0.00,,,0.00,weatherlink.com 1.10,2013-01-31 14:47:00,
2013-01-31 09:16:00,47.6,29.0,30.23,SW,221,9.0,14.0,49,0.00,,,0.00,weatherlink.com 1.10,2013-01-31 15:16:00,
2013-01-31 09:31:00,48.7,28.0,30.23,WSW,246,6.0,11.0,45,0.00,,,0.00,weatherlink.com 1.10,2013-01-31 15:31:00,
2013-01-31 09:46:00,50.0,28.0,30.24,West,269,7.0,10.0,43,0.00,,,0.00,weatherlink.com 1.10,2013-01-31 15:46:00,
2013-01-31 10:02:00,51.0,29.0,30.24,WSW,248,9.0,13.0,43,0.00,,,0.00,weatherlink.com 1.10,2013-01-31 16:02:00,
2013-01-31 10:17:00,51.6,28.0,30.24,West,269,13.0,15.0,41,0.00,,,0.00,weatherlink.com 1.10,2013-01-31 16:17:00,
2013-01-31 10:32:00,52.4,29.0,30.24,WNW,283,5.0,12.0,41,0.00,,,0.00,weatherlink.com 1.10,2013-01-31 16:32:00,
2013-01-31 10:47:00,54.1,31.0,30.24,SSW,210,6.0,13.0,42,0.00,,,0.00,weatherlink.com 1.10,2013-01-31 16:47:00,
2013-01-31 11:02:00,55.7,28.0,30.24,West,274,5.0,10.0,35,0.00,,,0.00,weatherlink.com 1.10,2013-01-31 17:02:00,
2013-01-31 11:17:00,56.6,28.0,30.23,SW,229,5.0,12.0,33,0.00,,,0.00,weatherlink.com 1.10,2013-01-31 17:17:00,
2013-01-31 11:32:00,58.3,29.0,30.23,WSW,245,4.0,10.0,33,0.00,,,0.00,weatherlink.com 1.10,2013-01-31 17:32:00,
2013-01-31 11:46:00,59.4,28.0,30.23,SW,218,4.0,11.0,30,0.00,,,0.00,weatherlink.com 1.10,2013-01-31 17:46:00,
2013-01-31 12:02:00,60.8,30.0,30.22,South,190,9.0,10.0,31,0.00,,,0.00,weatherlink.com 1.10,2013-01-31 18:02:00,
2013-01-31 12:17:00,61.7,29.0,30.22,West,277,2.0,11.0,29,0.00,,,0.00,weatherlink.com 1.10,2013-01-31 18:17:00,
2013-01-31 12:32:00,62.2,29.0,30.21,WNW,293,4.0,10.0,29,0.00,,,0.00,weatherlink.com 1.10,2013-01-31 18:32:00,
2013-01-31 12:47:00,62.9,28.0,30.20,SW,228,3.0,10.0,27,0.00,,,0.00,weatherlink.com 1.10,2013-01-31 18:47:00,
2013-01-31 13:02:00,63.6,26.0,30.19,WSW,242,5.0,9.0,24,0.00,,,0.00,weatherlink.com 1.10,2013-01-31 19:02:00,
2013-01-31 13:17:00,64.0,29.0,30.19,West,270,5.0,10.0,27,0.00,,,0.00,weatherlink.com 1.10,2013-01-31 19:17:00,
2013-01-31 13:33:00,64.8,29.0,30.18,SW,218,4.0,9.0,26,0.00,,,0.00,weatherlink.com 1.10,2013-01-31 19:33:00,
2013-01-31 13:47:00,64.5,28.0,30.17,West,266,4.0,14.0,25,0.00,,,0.00,weatherlink.com 1.10,2013-01-31 19:47:00,
2013-01-31 14:02:00,64.1,24.0,30.16,WNW,294,4.0,12.0,22,0.00,,,0.00,weatherlink.com 1.10,2013-01-31 20:02:00,
2013-01-31 14:17:00,64.6,26.0,30.16,SSW,212,5.0,15.0,23,0.00,,,0.00,weatherlink.com 1.10,2013-01-31 20:17:00,
2013-01-31 14:32:00,64.9,28.0,30.15,SSW,197,11.0,11.0,25,0.00,,,0.00,weatherlink.com 1.10,2013-01-31 20:32:00,
2013-01-31 14:47:00,65.2,26.0,30.15,WSW,247,6.0,14.0,23,0.00,,,0.00,weatherlink.com 1.10,2013-01-31 20:47:00,
2013-01-31 15:02:00,65.3,26.0,30.15,SW,214,4.0,11.0,23,0.00,,,0.00,weatherlink.com 1.10,2013-01-31 21:02:00,
2013-01-31 15:17:00,65.9,27.0,30.14,SSW,198,7.0,14.0,23,0.00,,,0.00,weatherlink.com 1.10,2013-01-31 21:17:00,
2013-01-31 15:32:00,66.1,27.0,30.15,SW,219,7.0,10.0,23,0.00,,,0.00,weatherlink.com 1.10,2013-01-31 21:32:00,
2013-01-31 15:47:00,65.8,26.0,30.15,SSW,201,3.0,10.0,22,0.00,,,0.00,weatherlink.com 1.10,2013-01-31 21:47:00,
2013-01-31 16:02:00,65.8,27.0,30.15,West,260,5.0,10.0,23,0.00,,,0.00,weatherlink.com 1.10,2013-01-31 22:02:00,
2013-01-31 16:17:00,65.8,28.0,30.14,SSW,205,7.0,11.0,24,0.00,,,0.00,weatherlink.com 1.10,2013-01-31 22:17:00,
2013-01-31 16:32:00,65.0,27.0,30.14,SW,231,4.0,10.0,24,0.00,,,0.00,weatherlink.com 1.10,2013-01-31 22:32:00,
2013-01-31 16:47:00,64.2,29.0,30.15,SSW,201,4.0,8.0,27,0.00,,,0.00,weatherlink.com 1.10,2013-01-31 22:47:00,
2013-01-31 17:05:00,62.5,29.0,30.14,SW,222,6.0,10.0,28,0.00,,,0.00,weatherlink.com 1.10,2013-01-31 23:05:00,
2013-01-31 17:17:00,62.4,27.0,30.14,SW,232,5.0,13.0,26,0.00,,,0.00,weatherlink.com 1.10,2013-01-31 23:17:00,
2013-01-31 17:32:00,60.8,29.0,30.14,SSW,198,2.0,7.0,30,0.00,,,0.00,weatherlink.com 1.10,2013-01-31 23:32:00,
2013-01-31 17:47:00,59.5,29.0,30.16,WSW,240,2.0,5.0,31,0.00,,,0.00,weatherlink.com 1.10,2013-01-31 23:47:00,
2013-01-31 18:03:00,58.1,28.0,30.17,SW,222,0.0,2.0,32,0.00,,,0.00,weatherlink.com 1.10,2013-02-01 00:03:00,
2013-01-31 18:17:00,56.9,28.0,30.17,SW,236,1.0,3.0,33,0.00,,,0.00,weatherlink.com 1.10,2013-02-01 00:17:00,
2013-01-31 18:32:00,55.9,28.0,30.18,SW,232,0.0,2.0,34,0.00,,,0.00,weatherlink.com 1.10,2013-02-01 00:32:00,
2013-01-31 18:48:00,54.4,28.0,30.18,SSW,195,0.0,1.0,36,0.00,,,0.00,weatherlink.com 1.10,2013-02-01 00:48:00,
2013-01-31 19:02:00,52.6,29.0,30.18,SSW,195,0.0,0.0,40,0.00,,,0.00,weatherlink.com 1.10,2013-02-01 01:02:00,
2013-01-31 19:17:00,50.8,30.0,30.19,SSW,195,0.0,0.0,45,0.00,,,0.00,weatherlink.com 1.10,2013-02-01 01:17:00,
2013-01-31 19:33:00,49.1,28.0,30.19,SSW,195,0.0,0.0,45,0.00,,,0.00,weatherlink.com 1.10,2013-02-01 01:33:00,
2013-01-31 19:48:00,47.9,31.0,30.20,SSW,195,0.0,0.0,52,0.00,,,0.00,weatherlink.com 1.10,2013-02-01 01:48:00,
2013-01-31 20:02:00,46.5,30.0,30.20,SSW,195,0.0,0.0,54,0.00,,,0.00,weatherlink.com 1.10,2013-02-01 02:02:00,
2013-01-31 20:17:00,45.4,32.0,30.21,SSW,195,0.0,0.0,59,0.00,,,0.00,weatherlink.com 1.10,2013-02-01 02:17:00,
2013-01-31 20:32:00,44.7,31.0,30.22,SSW,195,0.0,0.0,60,0.00,,,0.00,weatherlink.com 1.10,2013-02-01 02:32:00,
2013-01-31 20:47:00,43.8,32.0,30.23,SSW,195,0.0,-999.0,63,-99.99,,,0.00,weatherlink.com 1.10,2013-02-01 02:47:00,
2013-01-31 21:02:00,43.0,32.0,30.24,SSW,195,0.0,1.0,65,0.00,,,0.00,weatherlink.com 1.10,2013-02-01 03:02:00,
2013-01-31 21:17:00,42.0,32.0,30.23,SSW,195,0.0,0.0,69,0.00,,,0.00,weatherlink.com 1.10,2013-02-01 03:17:00,
2013-01-31 21:33:00,41.9,32.0,30.24,SSW,196,0.0,0.0,69,0.00,,,0.00,weatherlink.com 1.10,2013-02-01 03:33:00,
2013-01-31 21:48:00,41.8,32.0,30.25,NE,56,3.0,4.0,68,0.00,,,0.00,weatherlink.com 1.10,2013-02-01 03:48:00,
2013-01-31 22:03:00,42.0,32.0,30.26,NNE,15,4.0,4.0,68,0.00,,,0.00,weatherlink.com 1.10,2013-02-01 04:03:00,
2013-01-31 22:18:00,47.4,30.0,30.28,North,5,3.0,7.0,52,0.00,,,0.00,weatherlink.com 1.10,2013-02-01 04:18:00,
2013-01-31 22:33:00,49.9,32.0,30.29,ENE,57,4.0,7.0,51,0.00,,,0.00,weatherlink.com 1.10,2013-02-01 04:33:00,
2013-01-31 22:48:00,48.6,33.0,30.30,ENE,60,6.0,10.0,55,0.00,,,0.00,weatherlink.com 1.10,2013-02-01 04:48:00,
2013-01-31 23:03:00,47.0,33.0,30.31,NNE,30,3.0,9.0,59,0.00,,,0.00,weatherlink.com 1.10,2013-02-01 05:03:00,
2013-01-31 23:18:00,46.2,33.0,30.32,ENE,72,3.0,9.0,60,0.00,,,0.00,weatherlink.com 1.10,2013-02-01 05:18:00,
2013-01-31 23:33:00,45.5,33.0,30.32,NNE,32,2.0,7.0,62,0.00,,,0.00,weatherlink.com 1.10,2013-02-01 05:33:00,
2013-01-31 23:48:00,45.0,32.0,30.32,NNE,23,4.0,12.0,61,0.00,,,0.00,weatherlink.com 1.10,2013-02-01 05:48:00,